Regional Weather Roundup
Issued by NWS Upton, NY

Current Version | Previous Version | Text Only | Print | Product List | Glossary On
Versions: 1 2 3 4 5 6 7 8 9 10 11 12 13 14 15 16 17 18 19 20 21 22 23 24 25 26 27
000 ASUS41 KOKX 280405 RWROKX REGIONAL WEATHER ROUNDUP NATIONAL WEATHER SERVICE NEW YORK NY 1200 AM EDT SAT MAY 28 2016 NOTE: "FAIR" INDICATES FEW OR NO CLOUDS BELOW 12,000 FEET WITH NO SIGNIFICANT WEATHER AND/OR OBSTRUCTIONS TO VISIBILITY. NYZ071-072-176-178-NJZ106-104-280500- NEW YORK CITY METRO AREA CITY SKY/WX TMP DP RH WIND PRES REMARKS CENTRAL PARK CLEAR 76 63 64 VRB7 30.09R LAGUARDIA APRT PTCLDY 76 67 73 S9 30.06R KENNEDY INTL PTCLDY 68 59 73 SW10 30.09R NEWARK/LIBERTY PTCLDY 76 64 66 S13 30.06R BRNX BOT. GARD N/A N/A N/A N/A E3 30.07F TETERBORO CLEAR 77 63 61 S8 30.04R $$ NYZ177-179-078>081-280500- LONG ISLAND NEW YORK CITY SKY/WX TMP DP RH WIND PRES REMARKS FARMINGDALE PTCLDY 67 56 67 SW14 30.09R ISLIP MOCLDY 68 56 65 SW16G24 30.09R SHIRLEY PTCLDY 69 57 65 SW14G23 30.10S RIVERHEAD N/A 70 57 64 SW2 30.08S WESTHAMPTON MOCLDY 65 56 72 SW13G22 30.11S EAST HAMPTON FAIR 64 56 73 SW12G18 30.09S MONTAUK POINT N/A 64 56 75 S10G25 30.10S $$ NYZ052-065-067-280500- HUDSON VALLEY CITY SKY/WX TMP DP RH WIND PRES REMARKS WHITE PLAINS PTCLDY 67 61 81 S3 30.07R NEWBURGH MOCLDY 70 68 94 CALM 30.07R MONTGOMERY CLEAR 68 66 93 CALM 30.05R FOG POUGHKEEPSIE CLEAR 72 66 81 CALM 30.03S ALBANY PTCLDY 73 67 81 S3 30.02R $$ NJZ001-105-106-008-010-013-015-019>022-104-280500- NEW JERSEY CITY SKY/WX TMP DP RH WIND PRES REMARKS NEWARK/LIBERTY PTCLDY 76 64 66 S13 30.06R TETERBORO CLEAR 77 63 61 S8 30.04R CALDWELL CLEAR 79 66 64 VRB5 30.05R MORRISTOWN CLEAR 77 63 61 S3 30.06R SOMERVILLE CLEAR 73 67 81 CALM 30.05R SUSSEX CLEAR 69 66 90 CALM 30.06R ANDOVER N/A 71 68 90 S3 30.07R TRENTON CLEAR 75 64 68 S10 30.08R MILLVILLE CLEAR 70 57 63 VRB3 30.12R ATLANTIC CITY CLEAR 71 57 61 S12G24 30.12S WRIGHTSTOWN NOT AVBL TOMS RIVER PTCLDY 72 52 49 SW10 30.11R BELMAR CLEAR 72 56 57 S12 30.10S $$ PAZ047>061-062-071-280500- EASTERN PENNSYLVANIA CITY SKY/WX TMP DP RH WIND PRES REMARKS PHILADELPHIA PTCLDY 74 62 66 S8 30.10R ALLENTOWN PTCLDY 77 67 71 SW7 30.07R SCRANTON PTCLDY 71 65 81 CALM 30.07R $$ CTZ002-004>006-009-010-012-RIZ004-006-007-MAZ004-011-015-280500- SOUTHERN NEW ENGLAND IN CT CITY SKY/WX TMP DP RH WIND PRES REMARKS BRADLEY INTL MOCLDY 70 61 73 S9 30.04S HARTFORD PTCLDY 71 60 68 S7 30.05S DANBURY MOCLDY 67 64 90 CALM 30.08R WTRBRY/OXFORD N/A 64 59 82 CALM 30.09R BRIDGEPORT CLOUDY 70 60 70 SW7 30.07R MERIDEN PTCLDY 69 59 70 S3 30.07R NEW HAVEN PTCLDY 66 58 75 S6 30.08R CHESTER FAIR 66 57 72 SW7 30.08S GROTON PTCLDY 62 57 83 SE3 30.08R WILLIMANTIC PTCLDY 70 59 68 S5 30.08R IN RI CITY SKY/WX TMP DP RH WIND PRES REMARKS PROVIDENCE PTCLDY 69 53 56 SW10G18 30.09R BLOCK ISLAND CLEAR 60 56 86 SW13 30.11R WESTERLY CLEAR 65 53 65 SW7 30.10R IN MA CITY SKY/WX TMP DP RH WIND PRES REMARKS BOSTON CLEAR 70 61 73 S13 30.04R WORCESTER PTCLDY 68 60 75 SW12 30.07S WESTFIELD MOCLDY 68 63 84 CALM 30.05R PROVINCETOWN CLOUDY 61 56 83 SW15 30.08S NANTUCKET CLEAR 60 57 89 SW10 30.13R $$ ANZ330-335-338-340-345-350-353-355-280500- COASTAL MARINE OBSERVATIONS STATION/POSITION TIME SKY/WX TEMP WIND PRES VSBY WAVE AIR SEA DIR/SP/G HT/PER (UTC) (F) (DEG/KT/KT) (MB) (MI) (FT/S) NY HARB ENTRANCE 0250 63 58 200/ 19/ 21 1017.8 4/ 6 20S FIRE ISLAND 0250 62 59 210/ 17/ 19 1018.6 4/ 5 GREAT SOUTH BAY 0300 66 68 220/ 21/ 25 N/A 23 SSW MONTAUK P 0350 62 57 220/ 17/ 19 1018.6 4/ 6 15 E BARNEGAT LI 0322 59 N/A 4/ 6 HUDSON CANYON 0250 61 57 1020.3 3/ 5 KINGS POINT 0300 61 1017.4 EXECUTION ROCKS NOT AVBL CENTRAL LI SOUND 0300 66 250/ 8/ 12 N/A 2/ 4 EASTERN LI SOUND 0300 61 55 250/ 4/ 6 N/A ROBBINS REEF 0300 190/ 13/ 18 1016.9 $$ >>>>>>>>>>>>>>>>>>>>>>>>>>>> KEY <<<<<<<<<<<<<<<<<<<<<<<<<<< > < > SKY/WX - SKY CONDITION/PRESENT WEATHER < > TMP - TEMPERATURE IN FAHRENHEIT < > DP - DEWPOINT IN FAHRENHEIT < > RH - RELATIVE HUMIDITY IN PERCENT < > WIND - DIRECTION AND SPEED IN MPH < > PRES - MEAN SEA LEVEL PRESSURE IN INCHES OF HG < > WCI - WIND CHILL INDEX < > VSB - VISIBILITY IN MILES < > HX - HEAT INDEX < > TC - TEMPERATURE IN CELSIUS < > VRB - VARIABLE WIND DIRECTION < > < >>>>>>>>>>>>>>>>>>>>>>>>>>>> KEY <<<<<<<<<<<<<<<<<<<<<<<<<<<

USA.gov is the U.S. government's official web portal to all federal, state and local government web resources and services.